Location: Rochester
(43.1610°N, 77.6109°W)
Time: 09:06:25
(UTC-05:00)

ISS - Visible Passes

Search period start: 13 December 2018 00:00
Search period end: 23 December 2018 00:00
Orbit: 401 x 408 km, 51.6° (Epoch: 13 December)

Date Brightness Start Highest point End Pass type
(mag) Time Alt. Az. Time Alt. Az. Time Alt. Az.
13 Dec -0.8 18:18:59 10° W 18:21:08 16° SW 18:23:16 10° S visible
14 Dec -1.7 17:26:13 10° WNW 17:29:08 30° SW 17:32:01 10° SSE visible
16 Dec -0.4 17:19:17 10° W 17:20:56 13° SW 17:22:34 10° SSW visible
